Regional Weather Roundup
Issued by NWS

Home | Current Version | Previous Version | Graphics & Text | Print | Product List | Glossary On
Versions: 1 2 3 4 5 6 7 8 9 10 11 12 13 14 15 16 17 18 19 20 21 22 23 24 25 26 27 28 29 30 31 32 33 34 35 36 37 38 39 40 41 42 43 44 45 46 47 48 49 50
986
ASUS45 KCYS 290010
RWRWY

WYOMING REGIONAL WEATHER ROUNDUP
NATIONAL WEATHER SERVICE CHEYENNE WY
600 PM MDT SUN MAY 28 2017

NOTE:  "FAIR" INDICATES FEW OR NO CLOUDS BELOW 12,000 FEET
WITH NO SIGNIFICANT WEATHER AND/OR OBSTRUCTIONS TO VISIBILITY.

WYZ001-290100-
YELLOWSTONE NATIONAL PARK

CITY           SKY/WX    TMP DP  RH WIND       PRES   REMARKS
LK YELLOWSTONE   N/A     49  40  71 CALM      30.38F
6HR MIN TEMP:  46; 6HR MAX TEMP:  59; 6HR PCP:  0.03;

W YELLOWSTONE  NOT AVBL

$$
WYZ002>013-054>058-071-098>099-290100-
NORTHERN WYOMING

CITY           SKY/WX    TMP DP  RH WIND       PRES   REMARKS
JACKSON        MOSUNNY   64  34  32 NW10      30.27
CODY           FAIR      63  42  46 VRB6      30.27F
GREYBULL       FAIR      70  39  32 NW9       30.17F
6HR MIN TEMP:  60; 6HR MAX TEMP:  78; 6HR PCP:  0.01;

WORLAND        PTSUNNY   65  42  43 N7        30.21R
6HR MIN TEMP:  62; 6HR MAX TEMP:  76; 6HR PCP:  0.01;

SHERIDAN       LGT RAIN  58  45  62 N20       30.23R
6HR MIN TEMP:  56; 6HR MAX TEMP:  72; 6HR PCP: TRACE;

BUFFALO        PTSUNNY   61  41  47 N20G36    30.24R
6HR MIN TEMP:  59; 6HR MAX TEMP:  69;

GILLETTE       CLOUDY    57  43  59 NW18G32   30.17F
6HR MIN TEMP:  55; 6HR MAX TEMP:  71;

HULETT         LGT RAIN  59  45  58 W10G18    30.15R
NEWCASTLE      LGT RAIN  61  36  39 N25G43    30.14R

$$
WYZ014>020-022>026-101>103-290100-
CENTRAL WYOMING

CITY           SKY/WX    TMP DP  RH WIND       PRES   REMARKS
BIG PINEY      CLOUDY    63  25  23 CALM      30.29F
6HR MIN TEMP:  56; 6HR MAX TEMP:  67;

PINEDALE       CLOUDY    63  28  27 N10       30.29F
DUBOIS         FAIR      59  25  27 N12       30.28S
LANDER         FAIR      68  37  32 NE17G24   30.19S
6HR MIN TEMP:  64; 6HR MAX TEMP:  70;

RIVERTON       LGT RAIN  64  37  36 VRB3      30.23R
6HR MIN TEMP:  63; 6HR MAX TEMP:  72; 6HR PCP: TRACE;

CASPER         FAIR      63  38  39 VRB5      30.22S
6HR MIN TEMP:  59; 6HR MAX TEMP:  69;

DOUGLAS        FAIR      67  37  33 NW20      30.19F
6HR MIN TEMP:  59; 6HR MAX TEMP:  70;


$$
WYZ021-027>030-104>119-290100-
SOUTHERN WYOMING

CITY           SKY/WX    TMP DP  RH WIND       PRES   REMARKS
EVANSTON       FAIR      66  30  26 NE7       30.29F
6HR MIN TEMP:  59; 6HR MAX TEMP:  66;

KEMMERER         N/A     63  27  25 SW10G16   30.31S
FORT BRIDGER   FAIR      68  26  20 NW13      30.31S
ROCK SPRINGS   FAIR      65  19  17 MISG      30.26F
6HR MIN TEMP:  60; 6HR MAX TEMP:  67;

DIXON            N/A     67  24  19 NW9       30.29S
RAWLINS        FAIR      66  23  19 NW12      30.26F
6HR MIN TEMP:  60; 6HR MAX TEMP:  68;

SARATOGA       FAIR      63  28  27 W14G22    30.28F
LARAMIE        PTSUNNY   61  29  29 NW17G23   30.26F
6HR MIN TEMP:  57; 6HR MAX TEMP:  64;

CHEYENNE       FAIR      59  38  45 N22G32    30.23R
6HR MIN TEMP:  59; 6HR MAX TEMP:  65;

TORRINGTON     FAIR      67  41  38 N7        30.14F
6HR MIN TEMP:  59; 6HR MAX TEMP:  73; 6HR PCP:  0.01;

PINE BLUFFS    FAIR      59  37  44 N23G32    30.21R

$$




USA.gov is the U.S. government's official web portal to all federal, state and local government web resources and services.